Location: *
(37.5724°S, 58.0067°E)
Time: 06:48:58
(UTC+00:00)

Cosmos 1933 Rocket - Pass Details

Date: 27 January 2021
Orbit: 607 x 630 km, 82.5° (Epoch: 06 March)

Event Time Altitude Azimuth Distance (km) Brightness Sun altitude
Rises 20:00:41 0° 207° (SSW) 2,956 8.0 -34.0°
Reaches altitude 10° 20:03:36 10° 226° (SW) 2,036 6.7 -34.0°
Enters shadow 20:04:33 13° 237° (WSW) 1,819 6.3 -34.1°
